[[{"header":{"parameterUnit":"m.s-1","parameterCategory":1,"la1":30.2991,"la2":30.254,"lo1":-89.0895,"lo2":-89.0444,"dy":0.0017,"dx":0.0017,"nx":28,"ny":28,"refTime":"2025-07-27T03:00:00:Z","depth":0,"parameterNumber":2,"parameterNumberName":"U-component_of_WINDS"},"data":[0,0,0,0,0,0,0,0,0,0,0,0,0,0,0,0,0,0,0,0,0,0,0,0,0,0,0,0,0,0,0,0,0,0,0,0,0,0,0,0,0,0,0,0,0,0,0,0,0,0,0,0,0,0,0,0,0,0,2.3726,2.3727,0,2.3887,2.3889,2.3891,2.3908,2.3906,2.3905,2.3903,2.4069,2.4075,2.4081,0,0,0,0,0,0,0,0,0,0,0,0,0,2.3432,2.3437,2.3726,2.3728,2.373,2.3887,2.3889,2.3891,2.3908,2.3906,2.3904,2.3902,2.4068,2.4075,2.4082,0,0,0,0,0,0,0,0,0,0,0,0,0,2.3573,2.3439,2.3725,2.3757,2.3761,2.3886,2.3889,2.3892,2.3909,2.3906,2.3904,2.3901,2.4065,2.4074,2.4083,2.4187,0,0,2.411,2.4114,0,0,0,0,0,0,0,0,2.3565,2.3584,2.375,2.3755,2.376,2.3875,2.3846,2.3991,2.3909,2.3853,2.3903,2.39,2.4007,2.402,2.4056,2.4195,2.4202,2.4111,2.4116,2.412,2.4123,0,0,0,0,0,0,0,2.3555,2.3577,2.3789,2.3753,2.3759,2.3763,2.3781,2.3874,2.3942,2.3858,2.3859,2.3878,2.4009,2.4047,2.406,2.4205,2.4111,2.4118,2.4124,2.4127,2.4435,2.4438,0,0,0,0,0,0,2.354,2.3569,2.3784,2.3794,2.3655,2.377,2.379,2.3841,2.3941,2.3954,2.388,2.3878,2.4033,2.405,2.4066,2.4193,2.412,2.4128,2.4133,2.4433,2.4436,2.4439,0,0,0,0,0,0,2.3533,2.3559,2.3778,2.3682,2.371,2.3778,2.3835,2.3845,2.3883,2.3958,2.397,2.3907,2.4032,2.4053,2.4156,2.4199,2.4132,2.4141,2.4429,2.4434,2.4438,2.445,0,0,0,0,0,0,2.3525,2.3556,2.3597,2.3683,2.3715,2.3866,2.3838,2.385,2.3899,2.3898,2.3986,2.3998,2.4032,2.4143,2.4165,2.4211,2.4148,2.4426,2.4431,2.4436,2.4446,2.4454,2.4461,0,0,0,0,0,2.3514,2.3594,2.3599,2.3625,2.3767,2.3868,2.3887,2.3923,2.3902,2.3943,2.399,2.3995,2.4191,2.4153,2.4179,2.4227,2.4423,2.443,2.4436,2.4442,2.4452,2.4461,0,0,0,0,0,0,2.3512,2.3606,2.3612,2.3723,2.3787,2.3871,2.3924,2.3933,2.4005,2.4001,2.4044,2.4064,2.4165,2.4207,2.4163,2.4333,2.4305,2.4317,2.4301,2.4312,2.4319,2.4306,2.4155,0,0,0,0,0,2.3525,2.3598,2.3677,2.3767,2.3799,2.3855,2.3901,2.3923,2.3992,2.4019,2.4075,2.4141,2.4217,2.4267,2.4342,2.4452,2.4471,2.4498,2.4506,2.4511,2.4521,2.458,2.4593,2.446,2.446,2.446,0,0,2.3551,2.3612,2.3656,2.3768,2.382,2.3895,2.3878,2.3959,2.4015,2.4032,2.4132,2.4175,2.4252,2.4358,2.4408,2.4396,2.4562,2.4519,2.4523,2.453,2.4588,2.4601,2.4612,2.4464,2.4463,2.4463,0,0,2.3637,2.3691,2.3771,2.3824,2.3903,2.394,2.3959,2.4042,2.407,2.4171,2.4185,2.4252,2.4384,2.4437,2.4482,2.4587,2.4594,2.461,2.4649,2.4707,2.4717,2.4727,2.4763,2.4775,2.4619,2.462,2.462,0,2.366,2.3774,2.3811,2.3891,2.3939,2.3957,2.4038,2.4087,2.4187,2.422,2.4205,2.4369,2.4423,2.4541,2.4567,2.4603,2.4625,2.46,2.4713,2.4723,2.4732,2.4767,2.478,2.4621,2.4621,2.4621,2.462,0,2.3797,2.3875,2.393,2.4025,2.408,2.416,2.4209,2.426,2.4277,2.4316,2.4418,2.4482,2.4569,2.4599,2.4618,2.4721,2.471,2.4704,2.4677,2.4745,2.4779,2.4792,2.4623,2.4622,2.4622,2.4622,0,0,2.3887,2.4,2.402,2.4062,2.4151,2.4212,2.4292,2.4377,2.4419,2.4487,2.4555,2.4665,2.4659,2.4709,2.4734,2.4785,2.4862,2.4772,2.4774,2.4785,2.4977,2.498,2.4995,2.4867,2.487,2.4872,2.497,0,2.3982,2.4124,2.416,2.4282,2.4354,2.4372,2.4441,2.4503,2.4541,2.4607,2.465,2.4726,2.4713,2.4744,2.4795,2.4841,2.4901,2.4835,2.493,2.4933,2.4908,2.5013,2.5017,2.5106,2.4983,2.4986,2.4987,0,2.4112,2.4181,2.431,2.4387,2.4419,2.4481,2.456,2.4624,2.4694,2.4718,2.4774,2.4793,2.4877,2.4846,2.4961,2.4916,2.4957,2.4986,2.499,2.4999,2.4963,2.5023,2.5136,2.5148,2.5008,2.5007,2.5005,0,2.4162,2.4288,2.4381,2.4417,2.451,2.4553,2.4594,2.4661,2.4709,2.4779,2.481,2.4889,2.4932,2.4993,2.5033,2.5007,2.5144,2.5117,2.5166,2.5165,2.5193,2.5191,2.5312,2.5222,2.5222,2.5221,2.5221,0,2.4263,2.4341,2.4404,2.4461,2.4549,2.4588,2.4674,2.4715,2.4775,2.484,2.4861,2.4921,2.4971,2.5038,2.507,2.516,2.518,2.5201,2.5208,2.5198,2.5195,2.5225,2.5219,2.5225,2.5224,2.5223,2.5223,0,2.4334,2.438,2.4482,2.4561,2.4583,2.4643,2.4711,2.4767,2.4805,2.4887,2.4909,2.4969,2.5049,2.5095,2.5197,2.5218,2.5317,2.5323,2.5293,2.5296,2.5342,2.5336,2.5485,2.5506,2.5403,2.5404,2.5405,0,2.4395,2.4455,2.454,2.4585,2.4626,2.4698,2.4747,2.4788,2.4838,2.4921,2.4967,2.5048,2.5115,2.5242,2.5295,2.5372,2.5379,2.5426,2.5391,2.5378,2.5378,2.5373,2.5378,2.5431,2.5432,2.5433,2.5434,0,2.4498,2.4517,2.4586,2.4663,2.472,2.4783,2.4845,2.4881,2.4933,2.4987,2.5069,2.5121,2.5224,2.5304,2.5385,2.5427,2.5439,2.5444,2.5459,2.5449,2.5429,2.5439,2.5308,2.544,2.544,2.5439,2.5439,2.5439,2.4565,2.4618,2.4686,2.4762,2.4813,2.487,2.4926,2.497,2.5039,2.5125,2.5146,2.5231,2.5299,2.5409,2.5453,2.5521,2.5512,2.5535,2.554,2.5545,2.5545,2.5419,2.5536,2.5536,2.5536,2.5536,2.5536,0,2.4668,2.4712,2.4781,2.4867,2.4926,2.4932,2.5,2.505,2.5124,2.5186,2.5251,2.5344,2.5422,2.548,2.5559,2.5602,2.5609,2.5621,2.5618,2.5627,2.5549,2.5527,2.5614,2.5614,2.5614,2.5614,2.5614,2.5614,2.4728,2.4818,2.4845,2.496,2.5004,2.5087,2.5126,2.5178,2.5228,2.533,2.5394,2.5432,2.5492,2.5575,2.5646,2.5662,2.5689,2.57,2.5716,2.5641,2.5633,2.5625,2.5604,2.5706,2.5706,2.5789,2.5789,2.579]},{"header":{"parameterUnit":"m.s-1","parameterCategory":1,"la1":30.2991,"la2":30.254,"lo1":-89.0895,"lo2":-89.0444,"dy":0.0017,"dx":0.0017,"nx":28,"ny":28,"refTime":"2025-07-27T03:00:00:Z","depth":0,"parameterNumber":3,"parameterNumberName":"V-component_of_WINDS"},"data":[0,0,0,0,0,0,0,0,0,0,0,0,0,0,0,0,0,0,0,0,0,0,0,0,0,0,0,0,0,0,0,0,0,0,0,0,0,0,0,0,0,0,0,0,0,0,0,0,0,0,0,0,0,0,0,0,0,0,2.4706,2.4705,0,2.4636,2.4636,2.4635,2.4547,2.4546,2.4545,2.4543,2.4472,2.4471,2.447,0,0,0,0,0,0,0,0,0,0,0,0,0,2.4762,2.4761,2.4706,2.4705,2.4704,2.4637,2.4636,2.4635,2.4548,2.4546,2.4544,2.4543,2.4472,2.4471,2.447,0,0,0,0,0,0,0,0,0,0,0,0,0,2.472,2.4761,2.4706,2.4653,2.4647,2.4637,2.4636,2.4634,2.4548,2.4546,2.4544,2.4542,2.4472,2.4471,2.447,2.4507,0,0,2.4468,2.4467,0,0,0,0,0,0,0,0,2.4722,2.4718,2.4661,2.4656,2.465,2.4598,2.4629,2.4592,2.4548,2.4586,2.4543,2.4541,2.4516,2.4511,2.4502,2.4503,2.45,2.4467,2.4467,2.4467,2.4466,0,0,0,0,0,0,0,2.4725,2.472,2.4678,2.4661,2.4654,2.4632,2.4623,2.4621,2.4563,2.4582,2.4576,2.4569,2.4512,2.4504,2.45,2.4499,2.4468,2.4467,2.4466,2.4466,2.4524,2.4526,0,0,0,0,0,0,2.4736,2.4723,2.4681,2.4676,2.4682,2.4632,2.4623,2.4617,2.4563,2.4553,2.4571,2.4565,2.4506,2.4501,2.4497,2.4535,2.4467,2.4466,2.4465,2.4522,2.4524,2.4527,0,0,0,0,0,0,2.4738,2.4733,2.4683,2.4698,2.469,2.4634,2.4628,2.4617,2.4608,2.4554,2.4543,2.4573,2.4504,2.4499,2.4504,2.4531,2.4465,2.4464,2.452,2.4523,2.4526,2.4611,0,0,0,0,0,0,2.474,2.4734,2.4748,2.4699,2.4689,2.4693,2.4629,2.4617,2.4607,2.4599,2.4553,2.4544,2.4502,2.4506,2.4504,2.4529,2.4464,2.4517,2.4521,2.4525,2.4606,2.4617,2.4626,0,0,0,0,0,2.4742,2.4775,2.4749,2.4745,2.4706,2.4695,2.4689,2.4641,2.461,2.4622,2.4587,2.4545,2.4529,2.4508,2.4504,2.4529,2.4515,2.452,2.4524,2.4601,2.4615,2.4626,0,0,0,0,0,0,2.4829,2.4768,2.4738,2.4757,2.4732,2.468,2.4695,2.4657,2.464,2.4633,2.4574,2.4564,2.4577,2.4553,2.4531,2.456,2.4515,2.452,2.4575,2.4588,2.4598,2.4603,2.4463,0,0,0,0,0,2.4851,2.4847,2.4794,2.4815,2.4804,2.4752,2.4745,2.471,2.4681,2.467,2.4635,2.4609,2.4597,2.4591,2.4578,2.4602,2.459,2.4617,2.4628,2.4636,2.464,2.4649,2.466,2.4542,2.4542,2.4542,0,0,2.4895,2.4861,2.4862,2.4832,2.4808,2.4805,2.4743,2.4743,2.474,2.467,2.4673,2.4647,2.4613,2.4628,2.4633,2.4609,2.467,2.4642,2.465,2.4649,2.4655,2.4667,2.4677,2.4545,2.4545,2.4544,0,0,2.4973,2.4948,2.4962,2.4939,2.4904,2.4869,2.4873,2.4826,2.4806,2.4808,2.4755,2.475,2.4732,2.471,2.4696,2.4765,2.4725,2.4762,2.4816,2.4826,2.4835,2.4843,2.4866,2.4875,2.4767,2.4767,2.4767,0,2.5033,2.5026,2.4974,2.4977,2.4964,2.4901,2.4914,2.4894,2.4857,2.4849,2.4823,2.4798,2.4771,2.4779,2.4795,2.4787,2.4788,2.4767,2.4838,2.4845,2.4852,2.4873,2.4882,2.4772,2.4771,2.4771,2.477,0,2.51,2.5097,2.5112,2.5077,2.5066,2.5075,2.5023,2.5018,2.4984,2.4951,2.4953,2.4918,2.4896,2.4895,2.4862,2.4898,2.4884,2.4849,2.4802,2.4869,2.4888,2.4895,2.4778,2.4777,2.4775,2.4774,0,0,2.5232,2.5167,2.5174,2.5156,2.5112,2.5108,2.5113,2.5091,2.5087,2.5063,2.5064,2.505,2.5017,2.5001,2.4964,2.4973,2.5028,2.4936,2.4934,2.4953,2.5063,2.5089,2.51,2.5001,2.5002,2.5003,2.5065,0,2.5302,2.5306,2.5259,2.5276,2.5271,2.521,2.5214,2.5187,2.5156,2.5147,2.5113,2.5103,2.506,2.505,2.5056,2.502,2.5049,2.5015,2.5,2.5001,2.501,2.511,2.5138,2.5198,2.5072,2.5074,2.5075,0,2.5384,2.5364,2.538,2.5334,2.533,2.5334,2.5309,2.5302,2.5269,2.5246,2.5229,2.5186,2.5186,2.5143,2.5141,2.5119,2.511,2.5091,2.5093,2.5089,2.5041,2.5107,2.5216,2.5225,2.5086,2.5085,2.5084,0,2.5477,2.5454,2.546,2.5447,2.5394,2.5398,2.5376,2.5341,2.5331,2.5309,2.5301,2.528,2.5268,2.5251,2.5204,2.5177,2.5207,2.516,2.5187,2.5188,2.5196,2.5196,2.5303,2.5192,2.5192,2.5192,2.5191,0,2.5559,2.5571,2.5501,2.5505,2.5517,2.5462,2.5474,2.5446,2.5415,2.5412,2.5358,2.5356,2.5294,2.5284,2.5247,2.525,2.5246,2.5226,2.5216,2.523,2.5233,2.5223,2.5217,2.5194,2.5193,2.5193,2.5193,0,2.5664,2.5618,2.5621,2.557,2.5557,2.5568,2.5523,2.5524,2.549,2.5486,2.5482,2.5428,2.5414,2.5365,2.5339,2.5314,2.5328,2.5309,2.5339,2.5333,2.5362,2.5359,2.5466,2.5477,2.536,2.5361,2.5362,0,2.5719,2.5727,2.5677,2.5671,2.5651,2.5642,2.563,2.5576,2.5567,2.5529,2.5534,2.5516,2.5498,2.5478,2.5435,2.5415,2.5394,2.5433,2.5391,2.5404,2.5393,2.5393,2.5392,2.5442,2.5444,2.5445,2.5446,0,2.5821,2.5798,2.5784,2.5762,2.575,2.5729,2.5706,2.5704,2.5643,2.5635,2.562,2.5606,2.5578,2.556,2.5532,2.5508,2.5467,2.546,2.5464,2.5479,2.5496,2.5486,2.5363,2.5457,2.5456,2.5455,2.5455,2.5454,2.5902,2.5906,2.5871,2.5856,2.5833,2.5812,2.581,2.5775,2.5762,2.5735,2.5704,2.5692,2.5657,2.5616,2.5594,2.5583,2.5561,2.5569,2.557,2.5573,2.5579,2.5498,2.5578,2.5578,2.5578,2.5577,2.5577,0,2.6,2.5974,2.5962,2.5931,2.5919,2.5882,2.5853,2.5846,2.5836,2.5808,2.5791,2.5773,2.5754,2.571,2.5687,2.5687,2.5667,2.5683,2.5682,2.5676,2.5601,2.5599,2.5699,2.5699,2.5699,2.5699,2.5699,2.5699,2.605,2.6053,2.6026,2.6017,2.599,2.5979,2.5966,2.5945,2.5922,2.5904,2.5889,2.586,2.5825,2.5799,2.5779,2.5767,2.576,2.5782,2.5763,2.5693,2.5682,2.5671,2.5668,2.5781,2.5781,2.5838,2.5839,2.584]}]]